Flag for Germany Weather past 2 weeks in Geesthacht, Schleswig-Holstein, Germany

Now
34 °F

Passing clouds.


Feels Like: 34 °F
Forecast: 31 / 44 °F
Wind: 2 mph from North

Location: Hamburg-Fuhlsbuettel

Current Time: Feb 28, 2015 at 12:16:50 AM

Latest Report: Feb 27, 2015 at 11:50 PM


Visibility: N/A

Pressure: 30.07 "Hg

Humidity: 100%

Dew point: 34 °F

Location of GeesthachtLocation

Historic Weather in Geesthacht — Graph

°F

Geesthacht temperature yesterday

Maximum temperature yesterday: 43 °F (at 12:20 PM)
Minimum temperature yesterday: 36 °F (at 10:20 PM)
Average temperature yesterday: 39 °F

Past Weeks' High & Low Weather Summary

 TemperatureHumidityPressure
High50 °F (Feb 14, 2:20 PM)100% (Feb 12, 11:20 PM)30.69 "Hg (Feb 12, 11:20 PM)
Low28 °F (Feb 17, 3:50 AM)54% (Feb 14, 2:20 PM)29.24 "Hg (Feb 21, 9:50 AM)
Average38 °F87%29.95 "Hg
* Reported Feb 12 11:20 PM — Feb 27 11:20 PM, Geesthacht, Weather by CustomWeather, © 2015

Note: Actual official high and low records may vary slightly from our data, if they occured in-between our weather recording intervals... More about our weather records

Advertising

Geesthacht weather history for previous 24 hours

 ConditionsComfort  
Time TempWeatherWind HumidityBarometerVisibility
11:20 PM
Fri, Feb 27
36 °FPassing clouds.6 mph93%30.07 "HgN/A
10:50 PM36 °FPassing clouds.8 mph93%30.07 "HgN/A
10:20 PM36 °FPassing clouds.9 mph93%30.04 "HgN/A
9:50 PM37 °FPassing clouds.10 mph87%30.04 "HgN/A
9:20 PM37 °FPassing clouds.10 mph93%30.04 "HgN/A
8:50 PM37 °FPassing clouds.9 mph93%30.01 "HgN/A
8:20 PM39 °FPassing clouds.8 mph87%30.01 "HgN/A
7:50 PM39 °FPassing clouds.8 mph87%30.01 "HgN/A
7:20 PM39 °FPassing clouds.8 mph87%29.98 "HgN/A
6:50 PM41 °FPartly cloudy.7 mph87%29.98 "HgN/A
6:20 PM41 °FPassing clouds.12 mph87%29.98 "HgN/A
5:50 PM41 °FPartly sunny.13 mph87%29.95 "HgN/A
5:20 PM41 °FBroken clouds.12 mph87%29.95 "HgN/A
4:50 PM41 °FScattered showers. Broken clouds.9 mph93%29.92 "HgN/A
4:20 PM43 °FSprinkles. Partly sunny.10 mph87%29.92 "HgN/A
3:50 PM41 °FLight rain. Broken clouds.7 mph93%29.92 "Hg6 mi
3:20 PM43 °FLight rain. Broken clouds.8 mph87%29.92 "HgN/A
2:50 PM43 °FLight rain. Broken clouds.8 mph93%29.89 "HgN/A
2:20 PM43 °FLight rain. Broken clouds.8 mph93%29.89 "HgN/A
1:50 PM41 °FLight rain. Broken clouds.10 mph93%29.89 "HgN/A
1:20 PM41 °FLight rain. Partly sunny.9 mph93%29.86 "HgN/A
12:50 PM43 °FLight rain. Broken clouds.7 mph87%29.86 "HgN/A
12:20 PM43 °FLight rain. Partly sunny.2 mph93%29.86 "Hg6 mi
11:50 AM41 °FLight rain. Partly sunny.3 mph93%29.86 "Hg5 mi
11:20 AM39 °FLight rain. Broken clouds.5 mph93%29.83 "Hg5 mi
10:50 AM39 °FLight rain. Partly sunny.7 mph93%29.83 "Hg5 mi
10:20 AM39 °FLight rain. Partly sunny.7 mph93%29.83 "Hg6 mi
9:50 AM39 °FLight rain. Partly sunny.7 mph93%29.83 "Hg6 mi
9:20 AM39 °FLight rain. Partly sunny.6 mph87%29.83 "Hg6 mi
8:50 AM37 °FLight rain. Partly sunny.6 mph93%29.83 "Hg5 mi
8:20 AM37 °FLight rain. Partly sunny.5 mph93%29.83 "Hg6 mi
7:50 AM37 °FLight rain. Partly sunny.5 mph93%29.80 "Hg6 mi
7:20 AM37 °FLight rain. Partly sunny.5 mph93%29.80 "Hg4 mi
6:50 AM37 °FLight rain. Passing clouds.6 mph93%29.80 "Hg4 mi
6:20 AM37 °FLight rain. Passing clouds.7 mph93%29.80 "Hg4 mi
5:50 AM37 °FLight rain. Passing clouds.6 mph93%29.80 "Hg4 mi
5:20 AM37 °FLight rain. Passing clouds.7 mph93%29.80 "Hg4 mi
4:20 AM37 °FLight rain. Passing clouds.6 mph93%29.80 "Hg5 mi
3:50 AM39 °FLight rain. Passing clouds.7 mph81%29.80 "HgN/A
3:20 AM39 °FLight rain. Passing clouds.7 mph81%29.80 "HgN/A
2:50 AM39 °FLight rain. Passing clouds.9 mph81%29.80 "HgN/A
2:20 AM39 °FLight rain. Passing clouds.9 mph81%29.80 "HgN/A
1:50 AM41 °FLight rain. Passing clouds.10 mph70%29.83 "HgN/A
1:20 AM41 °FPassing clouds.12 mph70%29.83 "HgN/A
12:50 AM41 °FClear.13 mph70%29.83 "Hg10 mi
12:20 AM41 °FPartly cloudy.13 mph70%29.83 "HgN/A
Weather by CustomWeather, © 2015

See weather overviewHow to use our weather pages